Weather History for Ortonville, MN

Change the Weather History Date:

Saturday, November 10, 2012

  Actual Average (KAQP) Record (KAQP)
Temperature  
Mean Temperature 42 °F -  
Max Temperature 51 °F 40 °F 62 °F (2012)
Min Temperature 33 °F 23 °F 15 °F (1997)
Degree Days  
Heating Degree Days 23    
Moisture  
Dew Point 42 °F    
Average Humidity 90    
Maximum Humidity 94    
Minimum Humidity 76    
Precipitation  
Precipitation 0.05 in - - ()
Sea Level Pressure  
Sea Level Pressure 29.56 in    
Wind  
Wind Speed 12 mph (East)    
Max Wind Speed 23 mph    
Max Gust Speed 30 mph    
Visibility 3 miles    
Events Fog , Rain , Thunderstorm    
Averages and records for this station are not official NWS values.
T = Trace of Precipitation, MM = Missing Value Source: NWS Daily Summary

Daily Weather History Graph

Daily Weather History Graph

Search for Another Location

Airport:

Trip Planner

Search our weather history database for the weather conditions in past years. The results will help you decide how hot, cold, wet, or windy it might be!

Date:

Astronomy

Nov. 10, 2012 Rise Set
Actual Time 7:18 AM CST 5:00 PM CST
Civil Twilight 6:46 AM CST 5:32 PM CST
Nautical Twilight 6:10 AM CST 6:07 PM CST
Astronomical Twilight 5:36 AM CST 6:42 PM CST
Moon 3:14 AM CST (11/10) 2:56 PM CST (11/10)
Length of Visible Light 10h 45m
Length of Day
9h 42m
Waning Crescent, 14% of the Moon is Illuminated
Nov 10
Waning Crescent
Nov 13
New
Nov 20
First Quarter
Nov 28
Full
Dec 6
Last Quarter

Hourly Weather History & Observations

Time (CST) Temp. Windchill Dew Point Humidity Pressure Visibility Wind Dir Wind Speed Gust Speed Precip Events Conditions
12:14 AM 42.8 °F 34.0 °F 35.6 °F 76% 29.78 in 10.0 mi ESE 20.7 mph 25.3 mph N/A   Overcast
12:33 AM 42.8 °F 35.1 °F 35.6 °F 76% 29.77 in 10.0 mi ESE 16.1 mph 23.0 mph N/A   Mostly Cloudy
12:54 AM 42.8 °F 35.1 °F 35.6 °F 76% 29.77 in 10.0 mi ESE 16.1 mph 25.3 mph N/A   Scattered Clouds
1:13 AM 42.8 °F 34.3 °F 37.4 °F 81% 29.76 in 10.0 mi ESE 19.6 mph - N/A   Mostly Cloudy
1:34 AM 42.8 °F 35.8 °F 37.4 °F 81% 29.75 in 10.0 mi ESE 13.8 mph - N/A   Overcast
1:54 AM 42.8 °F 35.4 °F 37.4 °F 81% 29.74 in 10.0 mi ESE 15.0 mph - N/A   Overcast
2:13 AM 42.8 °F 35.4 °F 37.4 °F 81% 29.74 in 10.0 mi ESE 15.0 mph - N/A   Overcast
2:34 AM 42.8 °F 35.8 °F 37.4 °F 81% 29.73 in 7.0 mi ESE 13.8 mph - N/A   Light Drizzle
2:54 AM 42.8 °F 36.2 °F 37.4 °F 81% 29.72 in 3.0 mi ESE 12.7 mph - N/A   Light Drizzle
3:13 AM 41.0 °F 35.8 °F 37.4 °F 87% 29.72 in 4.0 mi ESE 8.1 mph - N/A   Light Drizzle
3:34 AM 41.0 °F 34.7 °F 37.4 °F 87% 29.70 in 2.5 mi East 10.4 mph - N/A   Overcast
3:54 AM 41.0 °F 35.8 °F 39.2 °F 93% 29.69 in 2.5 mi East 8.1 mph - N/A   Overcast
4:13 AM 41.0 °F 34.7 °F 39.2 °F 93% 29.67 in 2.0 mi East 10.4 mph - N/A   Overcast
4:34 AM 42.8 °F 38.0 °F 39.2 °F 87% 29.67 in 2.5 mi East 8.1 mph - N/A   Overcast
4:53 AM 42.8 °F 37.0 °F 39.2 °F 87% 29.65 in 2.0 mi East 10.4 mph - N/A   Overcast
5:14 AM 42.8 °F 38.0 °F 39.2 °F 87% 29.66 in 1.5 mi East 8.1 mph - N/A   Overcast
6:33 AM 42.8 °F 36.6 °F 41.0 °F 93% 29.63 in 1.2 mi East 11.5 mph - 0.01 in Rain Rain
6:54 AM 42.8 °F 35.4 °F 41.0 °F 93% 29.62 in 1.2 mi East 15.0 mph - 0.02 in Rain Light Rain
7:14 AM 44.6 °F 38.1 °F 42.8 °F 93% 29.61 in 1.2 mi East 13.8 mph 18.4 mph N/A   Light Drizzle
7:33 AM 44.6 °F 38.4 °F 42.8 °F 93% 29.60 in 1.2 mi ESE 12.7 mph - N/A   Light Drizzle
7:54 AM 44.6 °F 37.8 °F 42.8 °F 93% 29.59 in 1.2 mi ESE 15.0 mph - N/A   Light Drizzle
8:13 AM 44.6 °F 38.4 °F 42.8 °F 93% 29.58 in 1.2 mi ESE 12.7 mph - N/A   Overcast
8:34 AM 44.6 °F 38.8 °F 42.8 °F 93% 29.57 in 1.2 mi ESE 11.5 mph - N/A   Overcast
8:54 AM 44.6 °F 38.8 °F 42.8 °F 93% 29.56 in 0.8 mi ESE 11.5 mph - N/A   Overcast
9:34 AM 46.4 °F 41.5 °F 44.6 °F 93% 29.55 in 0.8 mi ESE 10.4 mph - N/A   Overcast
9:54 AM 46.4 °F 41.1 °F 44.6 °F 93% 29.54 in 1.0 mi ESE 11.5 mph - N/A   Overcast
10:14 AM 46.4 °F 41.5 °F 44.6 °F 93% 29.54 in 1.0 mi ESE 10.4 mph - N/A   Overcast
10:34 AM 46.4 °F 41.9 °F 44.6 °F 93% 29.53 in 1.0 mi ESE 9.2 mph - N/A   Overcast
10:53 AM 46.4 °F 42.4 °F 44.6 °F 93% 29.53 in 1.0 mi ESE 8.1 mph - N/A   Overcast
11:14 AM 46.4 °F 43.5 °F 44.6 °F 93% 29.53 in 0.8 mi ESE 5.8 mph - N/A   Overcast
11:33 AM 46.4 °F 43.5 °F 44.6 °F 93% 29.51 in 0.8 mi East 5.8 mph - N/A   Overcast
11:54 AM 48.2 °F - 46.4 °F 93% 29.50 in 1.0 mi East 5.8 mph - N/A   Overcast
12:14 PM 48.2 °F - 46.4 °F 93% 29.49 in 0.8 mi East 4.6 mph - N/A   Overcast
12:33 PM 48.2 °F - 46.4 °F 93% 29.48 in 0.8 mi Calm Calm - N/A   Overcast
12:54 PM 48.2 °F - 46.4 °F 93% 29.46 in 0.8 mi East 4.6 mph - N/A   Overcast
1:14 PM 48.2 °F - 46.4 °F 93% 29.46 in 0.8 mi ESE 4.6 mph - N/A   Overcast
1:34 PM 50.0 °F - 48.2 °F 94% 29.45 in 1.0 mi ESE 4.6 mph - N/A   Overcast
1:54 PM 50.0 °F - 48.2 °F 94% 29.45 in 1.2 mi Calm Calm - N/A   Overcast
2:13 PM 51.8 °F - 48.2 °F 88% 29.45 in 1.8 mi Calm Calm - N/A   Overcast
2:34 PM 51.8 °F - 48.2 °F 88% 29.45 in 1.5 mi West 3.5 mph - N/A   Overcast
2:54 PM 50.0 °F - 48.2 °F 94% 29.44 in 0.8 mi West 4.6 mph - N/A   Overcast
3:13 PM 48.2 °F - 46.4 °F 93% 29.45 in 0.2 mi West 5.8 mph - N/A Fog Fog
3:34 PM 48.2 °F - 46.4 °F 93% 29.45 in 0.2 mi West 4.6 mph - N/A Fog Fog
3:54 PM 48.2 °F - 46.4 °F 93% 29.45 in 0.2 mi Calm Calm - N/A Fog Fog
4:13 PM 48.2 °F - 46.4 °F 93% 29.46 in 0.2 mi Calm Calm - N/A Fog Fog
4:34 PM 48.2 °F - 46.4 °F 93% 29.48 in 0.2 mi Calm Calm - N/A   Light Drizzle
4:54 PM 48.2 °F - 46.4 °F 93% 29.48 in 0.8 mi SW 3.5 mph - N/A   Light Drizzle
5:14 PM 48.2 °F - 46.4 °F 93% 29.49 in 1.0 mi SW 3.5 mph - N/A   Overcast
5:34 PM 48.2 °F - 46.4 °F 93% 29.47 in 1.0 mi NW 4.6 mph - N/A   Overcast
5:53 PM 48.2 °F - 46.4 °F 93% 29.46 in 1.0 mi NW 6.9 mph - N/A   Overcast
6:14 PM 46.4 °F 41.9 °F 44.6 °F 93% 29.45 in 0.5 mi NW 9.2 mph - N/A Fog Fog
6:34 PM 46.4 °F 41.9 °F 44.6 °F 93% 29.46 in 1.2 mi NW 9.2 mph - N/A   Overcast
6:53 PM 46.4 °F 42.4 °F 44.6 °F 93% 29.46 in 0.5 mi NW 8.1 mph - N/A Fog Fog
7:14 PM 44.6 °F 39.2 °F 42.8 °F 93% 29.48 in 0.8 mi WNW 10.4 mph - N/A Rain , Thunderstorm Light Thunderstorms and Rain
7:34 PM 44.6 °F 39.7 °F 42.8 °F 93% 29.42 in 1.2 mi NNE 9.2 mph - 0.02 in Rain , Thunderstorm Thunderstorms and Rain
7:54 PM 42.8 °F 37.5 °F 41.0 °F 93% 29.46 in 3.0 mi NW 9.2 mph - 0.03 in Rain Light Rain
8:13 PM 42.8 °F 35.8 °F 39.2 °F 87% 29.49 in 2.0 mi WNW 13.8 mph - N/A   Overcast
8:34 PM 39.2 °F 31.2 °F 37.4 °F 93% 29.48 in 1.8 mi WNW 13.8 mph - N/A   Overcast
8:54 PM 39.2 °F 32.0 °F 37.4 °F 93% 29.50 in 3.0 mi WNW 11.5 mph - N/A   Overcast
9:34 PM 39.2 °F 30.2 °F 37.4 °F 93% 29.52 in 2.5 mi NW 17.3 mph 20.7 mph N/A   Overcast
10:14 PM 37.4 °F 27.2 °F 35.6 °F 93% 29.52 in 4.0 mi NW 19.6 mph 23.0 mph N/A   Overcast
10:34 PM 35.6 °F 24.2 °F 33.8 °F 93% 29.54 in 7.0 mi NW 21.9 mph 27.6 mph N/A   Overcast
10:53 PM 33.8 °F 21.6 °F 32.0 °F 93% 29.56 in 10.0 mi NW 23.0 mph 29.9 mph N/A   Overcast
11:34 PM 33.8 °F 23.9 °F 30.2 °F 87% 29.59 in 10.0 mi NW 15.0 mph 26.5 mph N/A   Overcast
11:54 PM 33.8 °F 22.5 °F 30.2 °F 87% 29.59 in 10.0 mi WNW 19.6 mph 28.8 mph N/A   Overcast